This is the latest recevied weather packets stored in our database for station/object HF3P-11. If no packets are shown the sender has not sent any weather packets the latest 10 day(s).
| Time | Temp. | Humidity | Pressure | Rain* | Wind** | Luminosity | Snow |
|---|---|---|---|---|---|---|---|
| 1787423729 | 15° C | 91% | 1006.6 hPa | 0 mm | - | - | - |
| 1787423421 | 15° C | 91% | 1006.7 hPa | 0 mm | - | - | - |
| 1787423129 | 15.56° C | 90% | 1006.6 hPa | 0 mm | - | - | - |
| 1787422830 | 15.56° C | 89% | 1006.7 hPa | 0 mm | - | - | - |
| 1787422520 | 15.56° C | 89% | 1006.7 hPa | 0 mm | - | - | - |
| 1787422230 | 15.56° C | 87% | 1006.6 hPa | 0 mm | - | - | - |
| 1787421919 | 16.11° C | 86% | 1006.4 hPa | 0 mm | - | - | - |
| 1787421629 | 16.11° C | 86% | 1006.5 hPa | 0 mm | - | - | - |
| 1787421320 | 16.11° C | 85% | 1006.4 hPa | 0 mm | - | - | - |
| 1787421021 | 16.11° C | 85% | 1006.3 hPa | 0 mm | - | - | - |
| 1787420730 | 16.67° C | 85% | 1006.3 hPa | 0 mm | - | - | - |
| 1787420420 | 16.67° C | 85% | 1006.2 hPa | 0 mm | - | - | - |
| 1787420129 | 16.67° C | 85% | 1006.3 hPa | 0 mm | - | - | - |
| 1787419821 | 16.67° C | 86% | 1006.3 hPa | 0 mm | - | - | - |
| 1787419530 | 16.67° C | 86% | 1006 hPa | 0 mm | - | - | - |
| 1787419221 | 16.67° C | 86% | 1006.2 hPa | 0 mm | - | - | - |
| 1787418929 | 17.22° C | 88% | 1006.1 hPa | 0 mm | - | - | - |
| 1787418621 | 16.67° C | 89% | 1006.2 hPa | 0 mm | - | - | - |
| 1787418330 | 16.67° C | 92% | 1006 hPa | 0 mm | - | - | - |
| 1787418030 | 16.67° C | 92% | 1005.9 hPa | 0 mm | - | - | - |
| 1787417731 | 17.22° C | 92% | 1006 hPa | 0 mm | - | - | - |
| 1787417420 | 17.22° C | 92% | 1005.8 hPa | 0 mm | - | - | - |
| 1787417130 | 16.67° C | 93% | 1005.8 hPa | 0 mm | - | - | - |
| 1787416820 | 16.67° C | 93% | 1005.9 hPa | 0 mm | - | - | - |
| 1787416530 | 16.67° C | 93% | 1005.7 hPa | 0 mm | - | - | - |
* Rain latest hour (hover to see other rain measurements)
** Current wind speed in m/s (hover to see current wind gust speed)